DW3800 Weather Reports


time (UTC)temp
F
wind
direction
speed
knots
gust
knots
rain 1hr
in
rain 24hr
in
rain mn
in
humidity
%
barometer
mb
20260506081026 32 242 0.9 1.7 0.00 0.00 0.00 76 1016.7
20260506080523 32 202 0.9 0.9 0.00 0.00 0.00 76 1016.5
20260506073507 33 214 0.0 0.9 0.00 0.00 0.00 73 1016.3
20260506073004 33 202 0.0 0.9 0.00 0.00 0.00 73 1016.5
20260506072501 33 260 0.9 0.9 0.00 0.00 0.00 73 1016.3
20260506071959 33 256 0.0 0.0 0.00 0.00 0.00 72 1016.3
20260506071456 34 242 0.0 0.9 0.00 0.00 0.00 72 1016.1
20260506070953 34 233 0.9 0.9 0.00 0.00 0.00 71 1016.1
20260506070450 35 201 0.0 0.9 0.00 0.00 0.00 70 1016.4
20260506062428 35 196 0.9 1.7 0.00 0.00 0.00 68 1016.1
20260506061924 36 209 0.0 0.9 0.00 0.00 0.00 68 1016.2
20260506061420 35 229 2.6 4.3 0.00 0.00 0.00 68 1016.1
20260506060918 35 252 0.0 0.9 0.00 0.00 0.00 70 1016.2
20260506060416 35 240 0.0 0.0 0.00 0.00 0.00 69 1016.2
20260506051348 38 26 1.7 1.7 0.00 0.00 0.00 62 1015.9
20260506050845 38 234 0.9 1.7 0.00 0.00 0.00 62 1015.6
20260506050343 38 254 0.9 2.6 0.00 0.00 0.00 61 1015.6
20260506044833 39 258 2.6 4.3 0.00 0.00 0.00 60 1015.4
20260506044331 39 240 0.0 2.6 0.00 0.00 0.00 59 1015.5
20260506043828 39 167 0.9 1.7 0.00 0.00 0.00 60 1015.5
20260506043325 39 225 0.0 2.6 0.00 0.00 0.00 60 1015.5
20260506042823 39 188 2.6 6.1 0.00 0.00 0.00 58 1015.5
20260506042322 39 190 0.9 6.1 0.00 0.00 0.00 59 1015.5
20260506041821 39 235 0.9 4.3 0.00 0.00 0.00 59 1015.6
20260506041317 39 256 1.7 4.3 0.00 0.00 0.00 59 1015.2
20260506040814 40 206 0.0 0.9 0.00 0.00 0.00 59 1015.5
20260506040312 40 227 2.6 4.3 0.00 0.00 0.00 58 1015.5
20260506035808 40 265 2.6 4.3 0.00 0.00 0.00 58 1015.4
20260506035306 40 263 2.6 6.1 0.00 0.00 0.00 57 1015.1
20260506034803 40 202 3.5 6.1 0.00 0.00 0.00 57 1015.2
20260506034259 40 168 1.7 2.6 0.00 0.00 0.00 58 1015.4
20260506033756 41 190 0.9 2.6 0.00 0.00 0.00 57 1015.4
20260506033253 41 251 1.7 4.3 0.00 0.00 0.00 57 1015.1
20260506032750 41 252 0.9 7.8 0.00 0.00 0.00 56 1015.1
20260506032247 41 217 2.6 7.0 0.00 0.00 0.00 56 1015.0
20260506031744 41 223 3.5 7.8 0.00 0.00 0.00 56 1015.2
20260506031241 41 257 1.7 5.2 0.00 0.00 0.00 56 1015.1
20260506030739 42 211 4.3 7.0 0.00 0.00 0.00 56 1015.2
20260506030237 42 191 1.7 5.2 0.00 0.00 0.00 55 1015.4
20260506025733 42 199 1.7 6.1 0.00 0.00 0.00 55 1014.8
20260506025230 42 255 1.7 1.7 0.00 0.00 0.00 55 1014.9
20260506024726 42 214 0.0 1.7 0.00 0.00 0.00 55 1014.8
20260506024223 42 240 4.3 5.2 0.00 0.00 0.00 54 1014.7
20260506023720 42 11 0.9 5.2 0.00 0.00 0.00 54 1014.7
20260506023217 43 220 0.0 2.6 0.00 0.00 0.00 54 1014.8
20260506022713 43 215 1.7 5.2 0.00 0.00 0.00 52 1014.7
20260506022211 43 190 3.5 4.3 0.00 0.00 0.00 52 1014.3
20260506021709 44 212 3.5 6.1 0.00 0.00 0.00 52 1014.3
20260506021206 44 186 2.6 5.2 0.00 0.00 0.00 52 1014.1
20260506020703 44 239 4.3 7.8 0.00 0.00 0.00 51 1014.2
20260506020201 44 251 4.3 7.0 0.00 0.00 0.00 51 1013.9
20260506015658 44 249 3.5 7.0 0.00 0.00 0.00 51 1013.7
20260506015155 44 266 0.9 1.7 0.00 0.00 0.00 51 1013.8
20260506014652 45 180 2.6 7.0 0.00 0.00 0.00 49 1013.7
20260506014148 45 233 3.5 6.1 0.00 0.00 0.00 49 1013.6
20260506013646 45 176 0.9 5.2 0.00 0.00 0.00 49 1013.7
20260506013143 45 267 4.3 8.7 0.00 0.00 0.00 49 1013.3
20260506012639 46 214 1.7 4.3 0.00 0.00 0.00 49 1013.6
20260506012136 46 245 1.7 7.8 0.00 0.00 0.00 48 1013.5
20260506011633 46 237 1.7 4.3 0.00 0.00 0.00 48 1013.5
20260506011129 46 243 3.5 6.1 0.00 0.00 0.00 47 1013.5
20260506010628 46 245 2.6 4.3 0.00 0.00 0.00 47 1013.4
20260506010125 47 232 1.7 4.3 0.00 0.00 0.00 47 1013.4
20260506005622 47 179 2.6 7.0 0.00 0.00 0.00 47 1013.3
20260506005118 47 147 0.9 5.2 0.00 0.00 0.00 47 1013.3
20260506004615 47 253 3.5 7.0 0.00 0.00 0.00 46 1013.2
20260506004112 47 173 0.9 6.1 0.00 0.00 0.00 46 1013.2
20260506003609 47 186 2.6 7.8 0.00 0.00 0.00 45 1013.1
20260506003105 47 212 1.7 4.3 0.00 0.00 0.00 46 1013.2
20260506002600 47 246 4.3 7.0 0.00 0.00 0.00 45 1013.1
20260506002057 47 231 3.5 7.8 0.00 0.00 0.00 46 1012.8
20260506001553 47 226 2.6 5.2 0.00 0.00 0.00 44 1012.9
20260506001050 47 227 2.6 7.0 0.00 0.00 0.00 45 1013.0
20260506000548 47 249 2.6 12.2 0.00 0.00 0.00 44 1012.8
20260506000045 47 231 1.7 5.2 0.00 0.00 0.00 46 1013.0
20260505235543 47 243 0.0 4.3 0.00 0.00 0.00 45 1012.9
20260505235040 47 258 3.5 7.8 0.00 0.00 0.00 45 1012.8
20260505234537 48 247 3.5 7.0 0.00 0.00 0.00 44 1012.6
20260505234033 48 228 3.5 6.1 0.00 0.00 0.00 44 1012.9
20260505233531 47 243 1.7 1.7 0.00 0.00 0.00 45 1012.9
20260505233028 48 252 3.5 4.3 0.00 0.00 0.00 45 1012.7
20260505232526 48 217 3.5 4.3 0.00 0.00 0.00 44 1012.8
20260505232023 48 245 1.7 6.1 0.00 0.00 0.00 44 1012.8
20260505231520 48 255 2.6 4.3 0.00 0.00 0.00 44 1012.7
20260505231019 48 191 0.9 9.6 0.00 0.00 0.00 45 1012.8
20260505230516 48 236 3.5 6.1 0.00 0.00 0.00 44 1012.8
20260505230012 48 219 1.7 7.8 0.00 0.00 0.00 44 1012.6
20260505225509 48 142 1.7 5.2 0.00 0.00 0.00 44 1012.8
20260505225005 48 232 2.6 6.1 0.00 0.00 0.00 45 1012.7
20260505224502 48 146 0.0 1.7 0.00 0.00 0.00 46 1012.8
20260505223959 48 185 2.6 6.1 0.00 0.00 0.00 44 1012.5
20260505223456 48 253 4.3 7.0 0.00 0.00 0.00 44 1012.8
20260505222952 48 183 6.1 9.6 0.00 0.00 0.00 44 1012.6
20260505222449 49 211 6.1 9.6 0.00 0.00 0.00 43 1012.7
20260505221944 49 271 2.6 7.0 0.00 0.00 0.00 43 1012.7
20260505221442 48 257 5.2 7.0 0.00 0.00 0.00 43 1012.7
20260505220939 48 129 0.9 7.8 0.00 0.00 0.00 44 1012.7
20260505220436 48 211 7.8 8.7 0.00 0.00 0.00 44 1012.7
20260505215934 48 181 0.9 7.8 0.00 0.00 0.00 44 1012.8
20260505215432 48 162 5.2 7.8 0.00 0.00 0.00 44 1012.8
20260505214929 48 191 2.6 5.2 0.00 0.00 0.00 44 1012.7
20260505214427 48 158 5.2 7.0 0.00 0.00 0.00 44 1012.8
20260505213924 49 183 4.3 13.0 0.00 0.00 0.00 44 1012.9
20260505213421 48 233 2.6 11.3 0.00 0.00 0.00 44 1012.8
20260505212917 49 221 3.5 9.6 0.00 0.00 0.00 43 1012.8
20260505212414 48 183 7.0 8.7 0.00 0.00 0.00 43 1012.9
20260505211911 49 201 1.7 6.1 0.00 0.00 0.00 44 1012.9
20260505211409 48 201 3.5 6.1 0.00 0.00 0.00 43 1012.7
20260505210904 49 239 2.6 6.1 0.00 0.00 0.00 44 1012.9
20260505210402 48 268 2.6 7.8 0.00 0.00 0.00 44 1012.9
20260505205859 48 249 1.7 2.6 0.00 0.00 0.00 44 1013.0
20260505205357 49 249 2.6 6.1 0.00 0.00 0.00 43 1013.0
20260505204853 48 284 2.6 4.3 0.00 0.00 0.00 44 1012.8
20260505204351 49 214 4.3 8.7 0.00 0.00 0.00 42 1013.0
20260505203848 49 239 7.8 8.7 0.00 0.00 0.00 41 1012.8
20260505203345 48 206 5.2 12.2 0.00 0.00 0.00 43 1012.8
20260505202841 48 239 2.6 2.6 0.00 0.00 0.00 44 1013.0
20260505202337 48 185 4.3 11.3 0.00 0.00 0.00 43 1012.9
20260505201834 49 218 6.1 13.0 0.00 0.00 0.00 42 1012.8
20260505201332 48 193 1.7 7.8 0.00 0.00 0.00 43 1013.0
20260505200830 48 154 4.3 7.0 0.00 0.00 0.00 43 1013.0
20260505200326 48 157 0.9 6.1 0.00 0.00 0.00 44 1013.1
20260505195822 48 226 4.3 11.3 0.00 0.00 0.00 42 1012.9
20260505195319 48 160 2.6 8.7 0.00 0.00 0.00 43 1012.9
20260505194816 48 152 2.6 11.3 0.00 0.00 0.00 43 1012.9
20260505194314 48 212 6.1 12.2 0.00 0.00 0.00 42 1013.1
20260505193808 49 217 7.0 8.7 0.00 0.00 0.00 42 1012.9
20260505193307 48 208 5.2 11.3 0.00 0.00 0.00 43 1012.9
20260505192805 48 167 3.5 8.7 0.00 0.00 0.00 43 1012.9
20260505192305 48 239 5.2 13.0 0.00 0.00 0.00 43 1013.1
20260505191800 48 215 3.5 7.8 0.00 0.00 0.00 43 1013.1
20260505191258 48 231 4.3 8.7 0.00 0.00 0.00 42 1013.0
20260505190754 48 235 4.3 7.8 0.00 0.00 0.00 42 1013.0
20260505190249 47 255 4.3 9.6 0.00 0.00 0.00 42 1013.1
20260505185746 48 247 7.0 9.6 0.00 0.00 0.00 42 1013.3
20260505185243 48 202 3.5 7.8 0.00 0.00 0.00 42 1013.1
20260505184738 48 191 2.6 8.7 0.00 0.00 0.00 43 1013.1
20260505184236 48 182 6.1 11.3 0.00 0.00 0.00 44 1013.1
20260505183733 47 165 3.5 12.2 0.00 0.00 0.00 43 1013.1
20260505183230 47 231 3.5 7.8 0.00 0.00 0.00 43 1013.1
20260505182726 47 257 7.8 12.2 0.00 0.00 0.00 43 1013.1
20260505182224 47 253 5.2 8.7 0.00 0.00 0.00 43 1013.0
20260505181720 47 221 3.5 8.7 0.00 0.00 0.00 44 1013.1
20260505181217 49 207 2.6 5.2 0.00 0.00 0.00 42 1013.0
20260505180714 48 219 4.3 7.8 0.00 0.00 0.00 43 1013.2
20260505180211 48 222 3.5 6.1 0.00 0.00 0.00 42 1013.1
20260505175707 47 251 4.3 12.2 0.00 0.00 0.00 43 1013.0
20260505175203 47 179 2.6 6.1 0.00 0.00 0.00 42 1013.1
20260505174700 46 204 3.5 7.8 0.00 0.00 0.00 44 1012.9
20260505174156 47 162 4.3 9.6 0.00 0.00 0.00 43 1013.1
20260505173653 47 229 3.5 7.8 0.00 0.00 0.00 42 1013.0
20260505173150 47 195 3.5 5.2 0.00 0.00 0.00 43 1013.2
20260505172647 47 95 0.9 4.3 0.00 0.00 0.00 46 1013.4
20260505172144 46 268 3.5 6.1 0.00 0.00 0.00 44 1013.3
20260505171643 48 217 4.3 11.3 0.00 0.00 0.00 42 1013.2
20260505171141 47 294 2.6 5.2 0.00 0.00 0.00 41 1013.3
20260505170638 47 129 5.2 9.6 0.00 0.00 0.00 42 1013.3
20260505170134 47 238 9.6 13.0 0.00 0.00 0.00 41 1013.5
20260505165629 47 216 7.0 7.8 0.00 0.00 0.00 42 1013.4
20260505165125 47 197 3.5 12.2 0.00 0.00 0.00 42 1013.2
20260505164621 46 230 3.5 13.0 0.00 0.00 0.00 42 1013.3
20260505164119 46 167 5.2 9.6 0.00 0.00 0.00 42 1013.3
20260505163617 45 219 5.2 8.7 0.00 0.00 0.00 45 1013.3
20260505163114 44 151 2.6 4.3 0.00 0.00 0.00 45 1013.4
20260505162612 45 215 1.7 7.8 0.00 0.00 0.00 46 1013.2
20260505162109 45 9 0.9 5.2 0.00 0.00 0.00 44 1013.1
20260505161606 44 295 1.7 7.0 0.00 0.00 0.00 45 1013.4
20260505161104 44 230 3.5 7.0 0.00 0.00 0.00 45 1013.2
20260505160601 45 247 5.2 9.6 0.00 0.00 0.00 44 1013.3
20260505153038 44 183 4.3 12.2 0.00 0.00 0.00 45 1013.3
20260505152535 45 253 1.7 5.2 0.00 0.00 0.00 45 1013.1
20260505152030 44 106 0.9 6.1 0.00 0.00 0.00 47 1013.2
20260505151525 44 179 3.5 6.1 0.00 0.00 0.00 47 1013.2
20260505151023 43 256 3.5 9.6 0.00 0.00 0.00 47 1013.0
20260505150519 44 233 8.7 12.2 0.00 0.00 0.00 46 1013.0
20260505140444 42 208 3.5 6.1 0.00 0.00 0.00 48 1012.6
20260505124857 39 275 0.9 7.0 0.00 0.00 0.00 55 1012.3
20260505124355 40 219 2.6 5.2 0.00 0.00 0.00 55 1011.8
20260505123850 39 249 1.7 2.6 0.00 0.00 0.00 55 1011.8
20260505123347 39 217 1.7 5.2 0.00 0.00 0.00 57 1011.8
20260505122843 39 223 1.7 5.2 0.00 0.00 0.00 56 1011.5
20260505122341 39 210 5.2 7.0 0.00 0.00 0.00 57 1011.6
20260505121837 39 188 2.6 5.2 0.00 0.00 0.00 57 1011.6
20260505121334 39 281 3.5 4.3 0.00 0.00 0.00 58 1011.5
20260505120830 39 161 1.7 2.6 0.00 0.00 0.00 60 1011.4
20260505120327 39 197 0.9 2.6 0.00 0.00 0.00 61 1011.2
20260505115826 39 167 1.7 1.7 0.00 0.00 0.00 61 1011.3
20260505115323 38 231 1.7 4.3 0.00 0.00 0.00 62 1011.0
20260505114821 38 266 2.6 6.1 0.00 0.00 0.00 63 1011.0
20260505114317 37 194 2.6 2.6 0.00 0.00 0.00 64 1010.9
20260505113813 37 229 2.6 5.2 0.00 0.00 0.00 65 1010.7
20260505113309 37 202 1.7 2.6 0.00 0.00 0.00 65 1010.8
20260505112805 37 226 6.1 7.8 0.00 0.00 0.00 65 1010.6
20260505112305 37 229 1.7 4.3 0.00 0.00 0.00 66 1010.9
20260505111759 37 245 1.7 5.2 0.00 0.00 0.00 65 1010.5
20260505111254 37 187 0.9 2.6 0.00 0.00 0.00 65 1010.6
20260505110750 37 214 2.6 4.3 0.00 0.00 0.00 65 1010.5
20260505110248 37 242 1.7 5.2 0.00 0.00 0.00 65 1010.6
20260505101722 38 217 1.7 4.3 0.00 0.00 0.00 65 1010.5
20260505101218 38 264 1.7 6.1 0.00 0.00 0.00 66 1010.3
20260505100715 38 234 0.9 2.6 0.00 0.00 0.00 65 1010.3
20260505100212 38 248 2.6 5.2 0.00 0.00 0.00 65 1010.3
20260505095707 39 242 1.7 5.2 0.00 0.00 0.00 65 1010.1
20260505095205 39 224 6.1 7.8 0.00 0.00 0.00 65 1010.0
20260505094700 39 221 3.5 6.1 0.00 0.00 0.00 65 1010.1
20260505094157 39 308 2.6 6.1 0.00 0.00 0.00 64 1010.2
20260505093653 39 172 0.0 4.3 0.00 0.00 0.00 65 1009.9
20260505093151 39 228 0.9 2.6 0.00 0.00 0.00 65 1009.8
20260505092648 39 194 0.9 5.2 0.00 0.00 0.00 64 1009.9
20260505092147 39 247 1.7 5.2 0.00 0.00 0.00 63 1009.8
20260505091643 39 214 3.5 7.0 0.00 0.00 0.00 64 1009.9
20260505091141 39 239 2.6 5.2 0.00 0.00 0.00 64 1009.9
20260505090638 39 240 0.9 5.2 0.00 0.00 0.00 63 1010.0
20260505090137 39 199 0.9 2.6 0.00 0.00 0.00 63 1009.7
20260505085633 40 203 3.5 5.2 0.00 0.00 0.00 62 1009.7
20260505085132 40 172 1.7 7.0 0.00 0.00 0.00 62 1009.7
20260505084629 40 358 0.9 4.3 0.00 0.00 0.00 62 1009.5
20260505084128 40 256 0.9 7.8 0.00 0.00 0.00 61 1009.4
20260505083625 40 156 0.0 5.2 0.00 0.00 0.00 61 1009.2
20260505083121 40 236 2.6 4.3 0.00 0.00 0.00 60 1009.5
20260505082616 41 246 0.9 5.2 0.00 0.00 0.00 60 1009.4